{"data":{"norad_id":40715,"intl_designator":"2015-032A","name":"DMC3-FM1","alt_names":[],"object_type":"PAYLOAD","status":"ACTIVE","operator":null,"country":"UK","launch_date":"2015-07-10","launch_site_code":"SRILR","launch_vehicle":null,"mission":null,"orbit_class":"UNKNOWN","rcs_meters":1.5728,"size_class":null,"mass_kg":null,"dimensions":null,"purposes":["earth_obs"],"wikipedia_slug":null,"has_3d_model":false,"image_url":null,"decayed_at":null,"tle_current":{"epoch":"2026-09-20T03:55:10.568064Z","epoch_age_seconds":43579,"freshness":"FRESH","line1":"1 40715U 15032A   26263.16331676  .00000145  00000+0  22586-4 0  9996","line2":"2 40715  97.6311 124.5508 0007017  96.2198 263.9818 14.85820526604010","mean_motion":14.85820526,"eccentricity":0.0007017,"inclination_deg":97.6311,"raan_deg":124.5508,"arg_perigee_deg":96.2198,"mean_anomaly_deg":263.9818,"bstar":2.2586e-5,"rev_number":60401,"period_min":96.916146654445,"perigee_km":606.10728037754,"apogee_km":615.91585147496,"semimajor_km":6989.1485659263,"source":"CELESTRAK","updated_at":"2026-09-20T09:00:34.586943Z"}}}